Regional Weather Roundup
Issued by NWS Little Rock, AR

Home | Current Version | Previous Version | Graphics & Text | Print | Product List | Glossary On
Versions: 1 2 3 4 5 6 7 8 9 10 11 12 13 14 15 16 17 18 19 20 21 22 23 24 25 26 27 28 29 30 31 32
000
ASUS44 KLZK 160605
RWRLZK

WEATHER ROUNDUP FOR ARKANSAS
NATIONAL WEATHER SERVICE LITTLE ROCK AR
100 AM CDT WED AUG 16 2017

NOTE: "FAIR" INDICATES FEW OR NO CLOUDS BELOW 12,000 FEET WITH NO
SIGNIFICANT WEATHER AND/OR OBSTRUCTIONS TO VISIBILITY.

ARZ001-003-010-029-160700-
NORTHWEST ARKANSAS

CITY           SKY/WX    TMP DP  RH WIND       PRES   REMARKS
FAYETTEVILLE   CLOUDY    71  70  96 CALM      29.95F
6HR MIN TEMP:  70; 6HR MAX TEMP:  82; 6HR PCP:  0.20;

FORT SMITH     CLOUDY    75  72  90 E6        29.90F
6HR MIN TEMP:  75; 6HR MAX TEMP:  88;

HARRISON       RAIN      75  75 100 SW6       29.95R FOG
6HR MIN TEMP:  75; 6HR MAX TEMP:  81;

BENTONVILLE    CLOUDY    72  68  88 S5        29.94F
6HR MIN TEMP:  72; 6HR MAX TEMP:  84; 6HR PCP:  0.22;

ROGERS         LGT RAIN  71  69  93 S9        29.95S
6HR MIN TEMP:  71; 6HR MAX TEMP:  83; 6HR PCP:  0.24;

SILOAM SPGS    CLOUDY    72  68  88 S6        29.93S
6HR MIN TEMP:  70; 6HR MAX TEMP:  82; 6HR PCP:  0.21;

HIGHFILL       CLOUDY    71  71 100 SE8       29.94R
6HR MIN TEMP:  71; 6HR MAX TEMP:  84; 6HR PCP:  0.24;

$$

ARZ004-005-016-160700-
NORTH CENTRAL ARKANSAS

CITY           SKY/WX    TMP DP  RH WIND       PRES   REMARKS
BATESVILLE     CLOUDY    75  73  94 CALM      29.91F
6HR MIN TEMP:  75; 6HR MAX TEMP:  84;

FLIPPIN        CLOUDY    75  70  83 CALM      29.89F
6HR MIN TEMP:  75; 6HR MAX TEMP:  81;

MTN HOME       CLOUDY    74  74 100 S5        29.91F
6HR MIN TEMP:  73; 6HR MAX TEMP:  80; 6HR PCP:  0.01;

$$

ARZ040-041-160700-
WEST CENTRAL ARKANSAS

CITY           SKY/WX    TMP DP  RH WIND       PRES   REMARKS
MENA           NOT AVBL
MOUNT IDA      CLOUDY    76  73  91 CALM      29.90
6HR MIN TEMP:  76; 6HR MAX TEMP:  85;

$$

ARZ009-017-025-026-028-160700-
NORTHEAST ARKANSAS

CITY           SKY/WX    TMP DP  RH WIND       PRES   REMARKS
CORNING        FAIR      75  75 100 SE5       29.91S
JONESBORO      PTCLDY    75  75 100 NE3       29.91F
6HR MIN TEMP:  75; 6HR MAX TEMP:  82;

NEWPORT        CLOUDY    74  74 100 CALM      29.90F
6HR MIN TEMP:  74; 6HR MAX TEMP:  82;

WALNUT RIDGE   MOCLDY    75  72  88 S3        29.91S
6HR MIN TEMP:  75; 6HR MAX TEMP:  81;

BLYTHEVILLE    PTCLDY    76  75  97 SE5       29.92F
6HR MIN TEMP:  75; 6HR MAX TEMP:  82;

$$

ARZ022-023-033-042-044-160700-
CENTRAL ARKANSAS

CITY           SKY/WX    TMP DP  RH WIND       PRES   REMARKS
LITTLE ROCK    PTCLDY    77  77 100 S8        29.91S
6HR MIN TEMP:  76; 6HR MAX TEMP:  85;

JACKSONVILLE   MOCLDY    76  76 100 SE3       29.90S
6HR MIN TEMP:  76; 6HR MAX TEMP:  88;

CONWAY           N/A     75  75 100 CALM      29.89S
SEARCY           N/A    N/A N/A N/A MISG        N/A
HOT SPRINGS    CLOUDY    80  76  87 SE3       29.92R HX  86
6HR MIN TEMP:  79; 6HR MAX TEMP:  88;

RUSSELLVILLE   CLOUDY    77  75  93 CALM      29.90R
6HR MIN TEMP:  77; 6HR MAX TEMP:  86;

CLINTON        FAIR      73  73 100 CALM      29.92S
$$

ARZ036-160700-
EAST ARKANSAS

CITY           SKY/WX    TMP DP  RH WIND       PRES   REMARKS
WEST MEMPHIS   PTCLDY    75  75 100 S3        29.91S FOG
6HR MIN TEMP:  75; 6HR MAX TEMP:  84;

$$

ARZ050-053-066-070-073-160700-
SOUTHWEST ARKANSAS

CITY           SKY/WX    TMP DP  RH WIND       PRES   REMARKS
ARKADELPHIA    FAIR      77  76  96 CALM      29.91S
6HR MIN TEMP:  76; 6HR MAX TEMP:  88;

CAMDEN         CLEAR     77  73  88 SE7       29.91S
TEXARKANA      CLEAR     78  76  93 S5        29.90S
6HR MIN TEMP:  78; 6HR MAX TEMP:  87;

EL DORADO      CLEAR     77  75  93 S5        29.92S
6HR MIN TEMP:  76; 6HR MAX TEMP:  89;

DE QUEEN       CLOUDY    76  76 100 CALM      29.88R
6HR MIN TEMP:  76; 6HR MAX TEMP:  88;

$$

ARZ056-057-069-160700-
SOUTHEAST ARKANSAS

CITY           SKY/WX    TMP DP  RH WIND       PRES   REMARKS
PINE BLUFF     PTCLDY    76  74  93 S5        29.92S
6HR MIN TEMP:  76; 6HR MAX TEMP:  88;

MONTICELLO     CLEAR     76  74  93 S6        29.93S
6HR MIN TEMP:  76; 6HR MAX TEMP:  89;


$$






USA.gov is the U.S. government's official web portal to all federal, state and local government web resources and services.